SL-14 DEB, 43321

Orbit data source: Space-Track

SL-14 DEB, 43321 is space debris in LEO originally from a launch on Tue, 02 Dec 1986 UTC launched from the Plesetsk Missile And Space Complex (PKMTR). Debris objects in space refer to the collection of defunct objects orbiting the Earth. Examples of debris include non-operational satellites, rocket bodies, and fragments generated from explosions, collisions, or faulty payload assembly.

Loading next visibility...
SL-14 DEB details
Identifier
43321, 1986-094D
Orbit
LEO
Last TLE update1 week ago
Origin
Flag of CISVTS SA (CIS)
ManufacturerUnknown
MissionSpacecraft
Bus & MotorUnknown
MassUnknown
Launch date (UTC)
1986-12-02 (38 years ago)
Launch vehicleUnknown
Launch site
Plesetsk Missile And Space Complex (PKMTR)
Object type
Payload
Rocket body
Debris
Shape & HBRUnknown
Radar Cross SectionSmall (<0.1 m²)

Expand to show TLE details & history

TLE from 1 week ago
0 SL-14 DEB
1 43321U 86094D   24353.25928987  .00000049  00000-0  28553-3 0  9996
2 43321  82.6075 340.7381 0002732 152.0965 229.6024 12.42122433923239
Epoch: 2024-12-18T06:13Z
Definitive object data (Epoch: 2024-12-18T06:13:22.644Z)
Latitude21.49561°
Longitude162.95221°
Altitude1,501.469 km
Speed7.115 km/s
True Right ascension22h 54m 36s
True Declination21° 23' 23"
Sunlit
Object was in daylight at TLE epoch
Visualization TLE readout
Latitude-54.87688°
Longitude144.24657°
Altitude1,520.965 km
Speed7.103 km/s
Apparent Right ascension02h 09m 22s
Apparent Declination-67° 54' 14"
Sunlit
Object is in daylight
Visualization observer readout
Local Sidereal Time18:05:44
Azimuth151.183° SSE
Elevation-47.964°
Doppler factor1
Orbital elements
Apogee altitude1,497.118 km
Perigee altitude1,492.816 km
Semi-major axis7,873.104 km
Eccentricity0.0002732
Inclination82.6075°
RAAN340.7381°
Arg. of periapsis152.0965°
True anomaly229.57856°
Mean anomaly229.6024°
Eccentric anomaly229.59048°
Mean motion3.10688 °/min
BSTAR0.00028553
Orbital period115.87 mins
Loading maneuver chart data...
Loading historical data...
Loading historical data...
Loading historical data...
Loading historical data...
Loading historical data...
Loading historical data...
Loading historical data...
Other satellites on launch #94 in the year 1986 (1986-12-02 UTC)

SL-14 DEB Visibility forecast

Observer location: undefined°, undefined

Span
Click to sort rows by Start time (UTC) header in descending order
Start Az.
Max El. time (UTC)
Max El. Az.
Max El.
End time (UTC)
End Az.
5 mins2024-12-26 21:08:11.750Z91.673° ESE2024-12-26 21:11:11.750Z70.656° E11.968°2024-12-26 21:13:11.750Z56.784° ENE
15 mins2024-12-26 22:59:11.750Z173.776° S2024-12-26 23:06:11.750Z78.726° E43.643°2024-12-26 23:14:11.750Z11.752° NNE
12 mins2024-12-27 00:58:11.750Z249.579° W2024-12-27 01:03:11.750Z289.475° WNW21.969°2024-12-27 01:10:11.750Z343.772° N
13 mins2024-12-27 09:11:11.750Z17.142° NNE2024-12-27 09:17:11.750Z74.555° E29.486°2024-12-27 09:24:11.750Z132.351° SE
15 mins2024-12-27 11:07:11.750Z339.183° N2024-12-27 11:14:11.750Z267.874° W37.828°2024-12-27 11:22:11.750Z199.114° SSW
|